Regional Weather Roundup
Issued by NWS

Home | Current Version | Previous Version | Graphics & Text | Print | Product List | Glossary On
Versions: 1 2 3 4 5 6 7 8 9 10 11 12 13 14 15 16 17 18 19 20 21 22 23 24 25 26 27 28 29 30 31 32 33 34 35 36 37 38 39 40 41 42 43 44 45 46 47 48 49 50
000
ASUS45 KTFX 201504
RWRMT
MONTANA HOURLY WEATHER ROUNDUP
NATIONAL WEATHER SERVICE GREAT FALLS MT
804 AM MST THU NOV 20 2014

NOTE: "FAIR" INDICATES FEW OR NO CLOUDS BELOW 12000 FEET WITH NO
SIGNIFICANT WEATHER AND/OR OBSTRUCTIONS TO VISIBILITY.

* THESE STATIONS ARE NOT UNDER NWS QUALITY CONTROL. THEY DO NOT
   REPORT WEATHER SUCH AS PRECIPITATION OR FOG.

MTZ001>007-043-201600-
WEST OF THE DIVIDE
CITY           SKY/WX    TMP DP  RH WIND       PRES   REMARKS
KALISPELL      FOG       23  21  92 CALM      30.06S VSB 1 1/2
MISSOULA       PTSUNNY   19  19 100 CALM      30.07R
BUTTE          PTSUNNY   21  16  81 CALM      29.98S
MULLAN PASS    CLOUDY    30  14  51 VRB7      29.95R WCI  23
* ESSEX        N/A       13  10  88 NW1        N/A
* LINCOLN      N/A       20  15  81 E2         N/A
* POLSON       N/A       21  20  96 SE1        N/A
* RONAN APT    CLOUDY    21  19  92 N/A        N/A
* SEELEY LAKE  N/A       13  10  88 W1         N/A
* THOMP F APT  CLOUDY    25  14  63 NE3        N/A
* YAAK HILL    N/A       23  19  85 N/A        N/A
$$

MTZ008-052>055-201600-
SOUTHWEST MONTANA
CITY           SKY/WX    TMP DP  RH WIND       PRES   REMARKS
BOZEMAN        PTCLDY    16  12  84 S5        29.99R WCI   8
DILLON         PTSUNNY   28  18  66 S3        29.98S
* W YELLOWSTON PTSUNNY   12   9  88 N/A        N/A
* ENNIS APT    PTSUNNY   30  19  64 S14        N/A   WCI  19
* THREE FORKS  PTSUNNY   18  18 100 N/A        N/A
* BOULDER HILL N/A       32  12  43 SW9        N/A   WCI  24
* MONIDA PASS  N/A       19  14  81 SE9        N/A   WCI   8
* RAYNOLDS PAS N/A       22   6  50 S6G11      N/A   WCI  14
* WHITEHALL    N/A       30  20  66 N3G11      N/A
* WISE RIVER   N/A       22  16  78 E1         N/A
$$

MTZ009>010-012-014-046-048-049-054-201600-
EAST SLOPES AND CENTRAL MONTANA
CITY           SKY/WX    TMP DP  RH WIND       PRES   REMARKS
CUT BANK       PTSUNNY   16  10  77 N6        29.79F WCI   7
GREAT FALLS    PTCLDY    34  19  54 S13       29.82S WCI  25
HELENA         PTSUNNY   19  16  88 CALM      29.97S
MALMSTROM AFB  PTCLDY    19  19 100 SW12      29.84F WCI   6
* DEARBORN     N/A       42  17  36 S7G14      N/A
* EAST GLACIER N/A       41   9  27 W24G30     N/A
* MONARCH      N/A       34   8  33 S6         N/A   WCI  29
* PENDROY      N/A       36  14  40 SE2        N/A
* ROGERS PASS  N/A       31  14  49 NE7G22     N/A   WCI  24
* SAINT MARY   N/A       42   8  24 S13G30     N/A
* SWEET GRASS  N/A       14  14 100 S7         N/A   WCI   4
$$

MTZ011-013-016-021-035-040-045-047-050-051-201600-
NORTH CENTRAL MONTANA
CITY           SKY/WX    TMP DP  RH WIND       PRES   REMARKS
HAVRE          FOG       21  19  92 SW8       29.87S VSB 1/2  WCI  11
LEWISTOWN      SUNNY     25  16  69 E5        29.84S WCI  19
* N BAR RANCH  SUNNY     28  18  66 W9        29.85S WCI  19
* CHESTER      N/A       18  15  88 W1         N/A
* DENTON       N/A       16  15  96 S6         N/A   WCI   7
* GEYSER       N/A       32  13  45 NW8        N/A   WCI  25
* JUDITH GAP   N/A       27  17  66 SW3        N/A
* LOMA         N/A       14  13  96 S1         N/A
$$

MTZ017>020-022>027-061-062-201600-
NORTHEAST MONTANA
CITY           SKY/WX    TMP DP  RH WIND       PRES   REMARKS
GLASGOW        CLOUDY    18  14  84 SE13      29.91F WCI   5
GLENDIVE       CLOUDY    16  14  92 SE3       29.98S
SIDNEY         CLOUDY    10   9  96 CALM      30.02F
WOLF POINT     CLOUDY    19  16  88 SE5       29.98F WCI  12
* BEAVER HILL  N/A       15  13  92 SE6        N/A   WCI   6
* CIRCLE       N/A       18  16  92 SE4        N/A
* LINDSAY DVD  N/A       14  12  92 SE5        N/A   WCI   6
* SACO         N/A       18  15  88 E10        N/A   WCI   6
$$

MTZ028>042-056>058-201600-
SOUTHCENTRAL AND SOUTHEAST MONTANA
CITY           SKY/WX    TMP DP  RH WIND       PRES   REMARKS
BAKER          FOG       16  12  84 SE7       29.95S WCI   6
BILLINGS       SUNNY     25  16  69 SW15      29.88F WCI  13
LIVINGSTON     PTCLDY    41  18  39 W30G43    29.90S
MILES CITY     SUNNY     10   9  96 SE7       29.94R WCI  -1
* LAUREL APT   SUNNY     23  10  57 S5         N/A   WCI  16
* ALZADA       N/A        9   6  87 E3         N/A
* HYSHAM       N/A       27  17  66 W6         N/A   WCI  20
* LAME DEER    N/A       32  16  52 SW4        N/A
* REED POINT   N/A       14  13  96 E2         N/A
* ROSCOE HILL  N/A       34  10  37 S4         N/A
$$

REGIONAL REPORTS...DAKOTAS
CITY           SKY/WX    TMP DP  RH WIND       PRES   REMARKS
WILLISTON      CLOUDY    12   7  80 S3        30.03S
DICKINSON      LGT SNOW  10   7  88 S5        29.98S VSB 2    WCI   1
BEACH          FOG       16  16 100 S9        29.97S VSB 1    WCI   5
CROSBY         CLOUDY    10   7  88 S6        30.02F
BISMARCK       CLOUDY    16   9  74 CALM      30.11R
GRAND FORKS    SUNNY      7   0  73 NW6       30.13R WCI  -4
FARGO          SUNNY      9   1  70 W7        30.14R WCI  -2
BUFFALO SD     PTCLDY    16  12  84 S10       29.90S WCI   4
RAPID CITY     FOG       12   7  80 CALM      30.00S VSB 2
$$

REGIONAL REPORTS...WYOMING/IDAHO/WASHINGTON
CITY           SKY/WX    TMP DP  RH WIND       PRES   REMARKS
GILLETTE       PTCLDY    16   9  74 NW3       29.92R
SHERIDAN       PTCLDY    16  10  77 CALM      29.91S
CODY           PTCLDY    21  14  74 CALM      29.92R
YELLOWSTONE LA PTSUNNY   12   9  88 W3        30.09R
SALMON         PTSUNNY   16  10  77 CALM      30.11S
MULLAN PASS    CLOUDY    30  14  51 VRB7      29.95S WCI  23
SAND POINT     CLOUDY    28  21  75 CALM      30.07R
SPOKANE        LGT SNOW  27  25  92 SE3       30.04R VSB 3

$$



USA.gov is the U.S. government's official web portal to all federal, state and local government web resources and services.